STARLINK-35460 (66328 NORAD) Tracking and Keplerian Element Data

This shows tracking and keplerian element data for the satellite.

Feedback or suggestion? Click here.




ElementValue
Catalog66328
NameSTARLINK-35460
Epoch Orbit806
Epoch Day354.13072198
Epoch Year2025
RAAN302.9693
Inclination43.0018
Eccentricity0.0003444
Argument of Perigee292.5338
Mean Anonmoly67.5154
Mean Motion15.40706694
Decay Rate0.00046356
L11 66328U 25253K 25354.13072198 .00046356 00000+0 11099-2 0 9997
L22 66328 43.0018 302.9693 0003444 292.5338 67.5154 15.40706694 8066



Live tracking and technical data element details for STARLINK-35460 (NORAD 66328). STARLINK-35460 can be tracked NOW for your location showing map with azimuth and elevation plus other details from your city location.







IsCatalogInMostPopularTable: catalog: 66328, numindb: 5
Update: records affected: 1



GetName: 66328 STARLINK-35460

Hit Count: updated at: Wed, 11 Feb 2026 15:21:09 GMT